SCP
0 0 0 1 1 0 0 0 0 0 0 0 0 0 0 0 0 0 0 0 0 0 0 0 0 0 0 0 0 0 0 0 0 0 0 0 0 0 0 0 0 0 0
0 0 0 1 1 1 0 0 0 0 0 0 0 0 0 0 0 0 0 0 0 0 0 0 0 0 0 0 0 0 0 0 0 0 0 0 0 0 0 0 0 0 0
0 0 0 1 1 1 0 0 0 0 0 0 0 0 0 0 0 0 0 0 0 0 0 0 0 0 0 0 0 0 0 0 0 0 0 0 0 0 0 0 0 0 0
0 0 0 1 1 1 0 0 0 0 0 0 0 0 0 0 0 0 0 0 0 0 0 0 0 0 0 0 0 0 0 0 0 0 0 0 0 0 0 0 0 0 0
0 0 0 1 1 1 0 0 0 0 0 0 0 0 0 0 0 0 0 0 0 0 0 0 0 0 0 0 0 0 0 0 0 0 0 0 0 0 0 0 0 0 0
0 0 1 1 1 1 1 0 0 0 0 0 0 0 0 0 0 0 0 0 0 0 0 0 0 0 0 0 0 0 0 0 0 0 0 0 0 0 0 0 0 0 0
0 0 1 1 1 1 1 1 0 0 0 0 0 0 0 0 0 0 0 0 0 0 0 0 0 0 0 0 0 0 0 0 0 0 0 0 0 0 0 0 0 0 0
0 0 0 1 1 1 1 1 1 0 0 0 0 0 0 0 0 0 0 0 0 0 0 0 0 0 0 0 0 0 0 0 0 0 0 0 0 0 0 0 0 0 0
0 0 0 1 1 1 1 1 1 0 0 0 0 0 0 0 0 0 0 0 0 0 0 0 0 0 0 0 0 0 0 0 0 0 0 0 0 0 0 0 0 0 0
0 0 0 0 1 1 1 1 1 1 0 0 0 0 0 0 0 0 0 0 0 0 0 0 0 0 0 0 0 0 0 0 0 0 0 0 0 0 0 0 0 0 0
0 0 0 0 1 1 1 1 1 0 0 0 0 0 0 0 0 0 0 0 0 0 0 0 0 0 0 0 0 0 0 0 0 0 0 0 0 0 0 0 0 0 0
1 1 1 1 1 1 1 1 0 0 0 0 0 0 0 0 0 0 0 0 0 0 0 0 0 0 0 0 0 0 0 0 0 0 0 0 0 0 0 0 0 0 0
1 1 1 1 1 1 1 1 0 0 0 0 0 0 0 0 0 0 0 0 0 0 0 0 0 0 0 0 0 0 0 0 0 0 0 0 0 0 0 0 0 0 0
1 1 1 1 1 1 1 1 0 0 0 0 0 0 0 0 0 0 0 0 0 0 0 0 0 0 0 0 0 0 0 0 0 0 0 0 0 0 0 0 0 0 0
0 1 1 2 2 1 1 1 0 0 0 0 0 0 0 0 0 0 0 0 0 0 0 0 0 0 0 0 0 0 0 0 0 0 0 0 0 0 0 0 0 0 0
0 0 1 2 2 2 1 1 0 0 0 0 0 0 0 0 0 0 0 0 0 0 0 0 0 0 0 0 0 0 0 0 0 0 0 0 0 0 0 0 0 0 0
0 0 0 1 2 2 2 1 1 0 0 0 0 0 0 0 0 0 0 0 0 0 0 0 0 0 0 0 0 0 0 0 0 0 0 0 0 0 0 0 0 0 0
0 0 0 0 1 1 1 1 1 0 0 0 0 0 0 0 0 0 0 0 0 0 0 0 0 0 0 0 0 0 0 0 0 0 0 0 0 0 0 0 0 0 0
0 0 0 0 0 1 1 1 0 0 0 0 0 0 0 0 0 0 0 0 0 0 0 0 0 0 0 0 0 0 0 0 0 0 0 0 0 0 0 0 0 0 0
0 0 0 0 0 1 0 0 0 0 0 0 0 0 0 0 0 0 0 0 0 0 0 0 0 0 0 0 0 0 0 0 0 0 0 0 0 0 0 0 0 0 0
0 0 0 0 0 0 0 0 0 0 0 0 0 0 0 0 0 0 0 0 0 0 0 0 0 0 0 0 0 0 0 0 0 0 0 0 0 0 0 0 0 0 0
0 0 0 0 0 0 0 0 0 0 0 0 0 0 0 0 0 0 0 0 0 0 0 0 0 0 0 0 0 0 0 0 0 0 0 0 0 0 0 0 0 0 0
0 0 0 0 0 0 0 0 0 0 0 0 0 0 0 0 0 0 0 0 0 0 0 0 0 0 0 0 0 0 0 0 0 0 0 0 0 0 0 0 0 0 0
0 0 0 0 0 0 0 0 0 0 0 0 0 0 0 0 0 0 0 0 0 0 0 0 0 0 0 0 0 0 0 0 0 0 0 0 0 0 0 0 0 0 0
0 0 0 0 0 0 0 0 0 0 0 0 0 0 0 0 0 0 0 0 0 0 0 0 0 0 0 0 0 0 0 0 0 0 0 0 0 0 0 0 0 0 0
0 0 0 0 0 0 0 0 0 0 0 0 0 0 0 0 0 0 0 0 0 0 0 0 0 0 0 0 0 0 0 0 0 0 0 0 0 0 0 0 0 0 0
Wind_Speed
5 5 15 16 16 15 13 12 11 9 8 8 7 8 8 9 8 7 6 5 4 4 5 5 4 4 6 8 8 7 6 6 6 6 6 7 7 6 5 3 2 3 4
7 8 15 16 16 15 14 12 10 9 8 7 7 7 8 8 7 6 5 4 4 3 4 5 5 6 6 7 7 6 5 4 4 5 7 6 8 7 6 4 3 2 5
8 10 13 16 16 16 14 12 10 9 8 8 7 7 8 7 6 5 5 4 3 3 3 4 5 6 7 6 6 4 3 3 4 5 6 4 5 8 6 4 4 5 5
10 10 10 15 16 16 14 13 11 9 9 8 8 7 7 7 6 5 4 3 3 3 3 4 4 5 5 5 4 3 2 3 4 4 2 2 3 7 7 5 6 7 6
9 8 10 16 16 16 15 13 11 10 9 8 8 7 7 7 6 6 4 4 3 3 3 3 3 3 3 3 3 3 3 4 4 3 2 2 3 7 8 8 7 7 7
8 7 9 15 16 16 15 14 12 10 9 8 8 7 7 7 7 6 5 4 3 3 2 2 2 1 1 1 2 3 4 5 3 1 2 3 3 8 9 9 9 8 8
8 6 8 15 16 16 15 14 13 11 9 8 8 7 6 6 6 6 6 5 4 2 1 1 1 1 2 3 4 5 6 5 3 3 4 4 5 10 10 10 10 10 10
9 7 7 14 14 15 15 14 13 11 10 9 8 8 6 5 5 6 7 6 4 3 2 3 3 4 5 5 6 7 7 6 5 4 4 5 9 11 11 10 11 12 12
7 7 6 7 9 13 13 13 13 11 9 9 8 7 4 2 3 6 6 5 5 4 4 5 6 6 7 7 8 8 7 7 5 3 5 4 9 12 12 12 12 13 14
5 6 6 6 6 7 8 11 11 10 9 8 7 5 4 1 0 2 3 3 5 6 6 6 7 7 7 8 8 8 7 6 3 4 3 5 11 12 13 13 13 14 14
6 6 6 6 6 6 6 8 9 9 8 7 5 6 4 1 1 1 2 4 6 7 7 7 7 7 7 6 7 8 6 2 3 3 3 7 11 11 12 12 12 12 12
9 9 8 9 7 6 6 5 4 4 5 4 3 3 3 2 0 1 3 4 5 5 5 6 6 6 5 3 5 6 3 4 3 3 3 9 10 10 11 11 12 12 12
8 8 10 10 9 8 5 5 3 3 3 4 4 4 3 2 1 1 1 2 2 3 2 3 4 3 3 3 3 3 4 3 3 3 4 10 9 9 10 11 12 13 13
6 8 9 11 10 10 7 5 5 4 3 3 4 4 3 2 1 1 1 1 1 1 2 2 2 4 4 5 5 4 5 3 3 3 4 10 11 12 12 14 15 16 16
8 9 10 11 12 10 8 6 6 5 4 4 4 4 4 3 3 2 2 2 2 2 3 3 3 4 5 5 5 5 5 5 4 4 3 10 14 15 15 15 16 16 16
9 9 9 12 12 11 9 7 6 5 4 4 4 5 6 4 4 4 4 3 3 3 3 4 4 4 4 3 4 4 4 4 4 4 4 7 14 16 16 16 16 16 16
8 7 9 12 12 13 11 9 6 5 5 4 4 5 6 6 6 5 5 4 4 4 4 4 4 4 4 5 5 4 3 4 3 4 4 4 5 13 16 17 17 17 16
6 6 7 9 12 12 10 8 5 5 5 5 5 6 7 8 7 6 5 5 4 4 4 4 4 4 4 5 4 4 3 3 3 3 3 4 4 5 9 16 18 18 17
6 5 6 7 11 10 9 8 7 6 6 5 5 6 8 8 8 7 6 5 4 5 4 4 4 4 4 6 5 4 3 3 2 2 3 3 3 4 4 11 17 18 17
5 5 5 7 9 11 10 9 8 8 7 6 6 7 9 8 9 8 6 6 5 5 5 4 4 4 3 4 5 5 3 2 1 1 2 2 2 4 5 6 7 10 16
4 5 6 9 11 12 10 9 8 7 6 6 7 9 9 9 9 8 6 6 6 6 5 5 3 5 5 5 4 6 4 3 2 1 2 1 2 4 6 7 6 5 6
6 6 7 10 11 10 8 6 6 7 6 6 7 8 9 9 8 8 7 6 5 5 6 6 5 3 4 5 4 3 6 7 5 3 3 2 3 5 7 9 8 7 6
7 8 9 9 9 9 10 11 11 8 6 5 6 6 7 8 8 8 8 6 6 5 5 5 5 4 3 3 3 3 3 4 5 5 4 3 4 4 5 6 7 7 9
8 7 9 9 10 11 12 15 17 11 8 6 5 6 7 7 8 8 8 7 6 5 5 4 4 3 3 3 3 2 1 3 3 6 4 3 4 6 6 7 8 9 9
9 9 9 10 10 10 9 13 13 11 9 9 8 10 8 7 7 7 7 6 6 5 5 5 4 4 2 1 1 1 2 2 2 3 7 6 6 4 5 7 8 7 7
9 9 10 12 10 9 9 10 15 17 16 13 10 9 7 5 5 7 7 6 5 4 4 4 3 3 2 1 0 1 1 2 2 3 6 10 10 6 7 8 6 5 5
Wind_Direction
208 193 172 157 152 149 147 143 139 136 135 135 139 143 140 134 124 114 109 103 93 74 61 56 56 95 121 124 118 108 94 76 60 47 36 24 9 347 325 314 313 328 305
165 172 172 160 156 153 152 148 144 141 140 142 145 149 147 140 130 124 116 107 96 74 54 46 48 67 90 106 109 104 89 64 45 34 34 23 360 340 316 280 271 277 292
151 165 168 162 159 157 156 152 150 149 149 149 148 145 145 139 134 127 122 105 85 66 53 48 47 57 64 77 88 88 74 42 19 15 27 15 346 340 327 268 249 264 276
157 162 162 163 162 161 160 157 157 158 158 158 156 152 149 146 145 139 125 99 74 67 64 60 54 52 53 58 60 51 32 2 356 6 28 355 337 327 321 286 245 248 263
156 158 162 164 165 164 163 163 164 166 167 168 167 164 160 163 160 154 138 110 92 90 90 83 72 62 46 32 17 342 325 325 346 14 345 328 318 313 309 295 275 267 273
155 156 164 167 169 168 167 169 171 173 175 176 177 177 179 182 180 170 153 140 135 131 123 110 97 80 22 327 313 308 311 317 342 316 296 293 288 299 297 290 284 276 267
159 160 168 172 174 171 172 175 176 178 179 181 184 186 192 197 197 188 167 168 175 179 177 186 291 305 298 297 297 299 305 314 304 274 275 273 275 290 290 284 279 277 272
166 165 173 180 178 175 177 179 180 181 182 186 191 196 206 222 218 187 177 187 206 227 258 291 307 310 308 306 306 310 317 316 308 288 274 268 278 290 288 282 276 273 270
168 168 177 183 181 178 178 181 182 182 183 187 194 198 196 216 215 178 181 205 233 257 283 303 311 312 310 311 312 314 313 307 300 280 279 275 287 293 289 283 276 270 266
176 181 181 182 177 175 177 180 179 178 181 187 189 176 154 145 138 168 192 237 259 277 294 304 309 314 319 320 320 320 319 314 305 292 284 291 301 301 298 295 291 283 277
196 195 188 186 179 169 169 178 175 176 181 183 179 167 154 118 34 15 312 288 282 288 301 311 321 333 344 341 340 342 345 344 321 307 298 313 320 319 320 324 325 321 311
202 200 196 194 187 173 177 169 165 165 169 165 154 157 148 145 104 333 327 316 306 317 329 333 347 3 13 360 355 4 4 356 353 336 334 346 346 341 343 346 348 347 345
203 198 198 198 192 184 177 163 161 156 158 164 166 165 151 139 107 13 4 356 13 23 16 6 17 25 28 21 13 14 15 16 9 353 351 3 5 5 9 15 18 18 16
202 203 197 197 195 192 181 171 167 165 167 172 175 167 152 146 142 108 69 36 39 42 44 38 42 39 37 31 26 24 24 18 5 356 2 23 35 36 38 37 32 27 23
216 211 198 192 194 191 183 176 176 178 179 177 169 170 163 154 145 123 95 74 61 59 58 51 48 46 37 28 24 24 22 11 7 12 16 42 49 44 42 36 29 22 17
226 218 198 194 191 186 185 181 178 177 170 165 169 170 161 149 139 125 100 77 61 58 58 58 56 47 33 17 15 14 19 9 13 29 40 44 51 47 42 34 24 16 9
230 217 199 194 184 183 183 179 170 165 157 158 152 148 142 133 125 113 98 79 63 61 64 57 52 45 30 14 2 2 16 13 22 41 53 52 48 44 37 30 20 11 3
224 208 200 189 180 179 173 161 149 144 140 133 127 122 117 114 114 106 98 85 72 65 62 61 37 37 21 5 345 339 5 2 20 52 55 59 60 51 30 27 18 6 358
207 192 181 174 170 165 148 133 123 118 113 110 107 107 106 104 103 102 95 88 79 67 51 55 47 39 20 355 333 328 354 347 0 57 55 60 63 59 35 21 12 359 352
185 170 157 147 146 138 127 117 109 101 96 93 95 100 103 101 100 98 90 81 75 68 51 46 54 41 27 347 330 327 331 338 354 58 41 47 48 40 32 20 5 346 343
165 155 146 142 144 143 140 135 127 117 107 96 93 97 99 100 98 95 94 81 73 72 61 45 48 37 19 359 1 339 335 350 353 10 16 355 22 21 21 5 345 326 320
173 161 149 149 151 150 143 128 117 116 103 95 94 92 94 98 97 95 92 86 78 78 61 47 46 47 21 24 31 3 346 338 341 347 339 351 11 12 3 342 318 307 304
179 169 157 152 145 136 130 120 114 105 102 101 99 91 87 92 90 93 90 87 78 77 72 60 53 63 31 12 41 58 15 311 310 311 320 341 354 352 331 311 302 302 300
181 162 149 144 140 141 141 142 142 140 133 127 123 110 95 87 89 88 86 84 80 75 72 61 62 64 66 28 3 30 229 237 288 308 301 308 323 316 299 305 301 291 288
159 152 144 138 138 142 144 144 134 123 118 122 117 107 96 84 82 84 83 81 79 75 73 65 60 58 72 81 6 321 312 291 244 270 292 303 302 278 284 287 286 283 281
146 143 142 140 136 136 135 136 135 132 134 132 126 115 105 93 81 78 81 79 78 75 70 64 61 57 60 61 305 251 246 272 285 276 286 304 303 292 280 276 274 273 280